Location: Misciano
(43.5000°N, 11.9500°E)
Time: 16:37:04
(UTC+00:00)

Cosmos 1634 Rocket - Pass Details

Date: 13 August 2020
Orbit: 959 x 992 km, 82.9° (Epoch: 18 September)

Event Time Altitude Azimuth Distance (km) Brightness Sun altitude
Exits shadow 23:35:11 51° 72° (ENE) 1,208 4.5 -32.1°
Drops below altitude 10° 23:40:38 10° 17° (NNE) 2,719 7.2 -32.0°
Sets 23:43:11 0° 13° (NNE) 3,666 8.1 -31.9°
